Location: *
(2.5500°S, 65.9667°W)
Time: 05:47:48
(UTC+00:00)

Explorer 7 - Pass Details

Date: 23 April 2024
Orbit: 467 x 625 km, 50.3° (Epoch: 26 May)

Event Time Altitude Azimuth Distance (km) Brightness Sun altitude
Rises 11:03:14 0° 219° (SW) 2,662 9.8 9.4°
Reaches altitude 10° 11:05:24 10° 220° (SW) 1,798 9.0 10.0°
Maximum altitude 11:09:30 80° 306° (NW) 571 7.0 11.0°
Drops below altitude 10° 11:13:50 10° 34° (NE) 1,891 10.4 12.0°
Sets 11:16:10 0° 35° (NE) 2,813 11.3 12.6°
